Location: Bidart
(43.4376°N, 1.5913°W)
Time: 05:34:14
(UTC+00:00)

Cosmos 1980 Rocket - Pass Details

Date: 19 May 2025
Orbit: 829 x 847 km, 71.0° (Epoch: 13 June)

Event Time Altitude Azimuth Distance (km) Brightness Sun altitude
Rises 22:29:55 0° 332° (NNW) 3,381 6.8 -23.1°
Reaches altitude 10° 22:32:23 10° 329° (NNW) 2,444 5.7 -23.3°
Maximum altitude 22:37:54 63° 250° (WSW) 929 2.3 -23.6°
Enters shadow 22:39:03 51° 200° (SSW) 1,042 2.3 -23.7°
